Starlink 30094

operational
NORAD ID: 56305 Int'l Des: 2023-056 Owner: SPXS Country: US Constellation: starlink
LEOCIRCULAR

关于 Starlink 30094

正在加载描述...

实时位置

正在加载3D地球...

即将过境

高度历史

Altitude vs Time

uPlot chart will show altitude changes over time

两行轨道根数

1 56305U 23056V 25304.70756221 .00000005 00000-0 15428-4 0 9998
2 56305 43.0036 190.8635 0000830 274.0637 86.0110 15.02532746140689
Epoch: Oct 31, 2025 • Age: 11 hours

当前状态

高度 563.5 km
速度 7.58 km/s
星下点 -20.70°S, 60.76°W
发射日期 Apr 19, 2023
运行时间 2.5 years
类型 internet

技术详情

分类 Payload
质量 730.00 kg
干质量 700.00 kg
总质量 730.00 kg
长度 0.30 m
直径 4.10 m
跨度 29.00 m
形状 Box + pan
制造商 SPXS
平台类型 Starlink V2M
阶段状态 In Orbit
所有者/国家 SPXS/US

大型星座

Loading constellations...